[[{"header":{"parameterUnit":"m.s-1","parameterCategory":1,"la1":30.2992,"la2":30.254,"lo1":-89.0895,"lo2":-89.0443,"dy":0.0025,"dx":0.0025,"nx":19,"ny":19,"refTime":"2026-04-01T21:00:00:Z","depth":0,"parameterNumber":2,"parameterNumberName":"U-component_of_WINDS"},"data":[0,0,0,-4.7779,-4.7781,-4.7871,-4.7872,-4.7998,-4.7999,0,0,0,0,0,0,0,0,0,0,0,-4.776,-4.7761,-4.7779,-4.7781,-4.7871,-4.7872,-4.7998,-4.7999,0,0,0,0,0,0,0,0,0,0,0,-4.7759,-4.776,-4.7762,-4.7782,-4.7871,-4.7872,-4.7998,-4.7925,0,0,0,0,0,0,0,0,0,0,-4.7836,-4.7825,-4.776,-4.7762,-4.7782,-4.7871,-4.7872,-4.7922,-4.793,-4.7962,0,-4.7994,0,-4.7999,-4.8009,-4.8009,0,0,0,-4.7775,-4.7818,-4.7836,-4.7762,-4.7783,-4.7871,-4.7829,-4.7926,-4.7935,-4.7973,-4.7996,-4.8,-4.8001,-4.801,-4.801,-4.8221,-4.8223,0,0,-4.777,-4.7779,-4.783,-4.7843,-4.7831,-4.7826,-4.7832,-4.7932,-4.7956,-4.7996,-4.8003,-4.8003,-4.8011,-4.8012,-4.822,-4.8222,0,0,0,-4.776,-4.7776,-4.7791,-4.7838,-4.7854,-4.7829,-4.7835,-4.7952,-4.7956,-4.8004,-4.8005,-4.8011,-4.8013,-4.8219,-4.8221,-4.8292,0,0,0,-4.7757,-4.777,-4.7789,-4.7796,-4.7852,-4.7904,-4.7853,-4.7949,-4.796,-4.8004,-4.8011,-4.8014,-4.8217,-4.822,-4.8287,-4.8323,0,0,0,-4.7751,-4.7769,-4.7785,-4.7796,-4.7836,-4.7902,-4.7912,-4.7951,-4.7961,-4.8009,-4.8015,-4.8216,-4.8219,-4.8282,-4.8315,-4.838,0,0,0,-4.7747,-4.7846,-4.7786,-4.7898,-4.7835,-4.7947,-4.7911,-4.7993,-4.8044,-4.8012,-4.8218,-4.8221,-4.8281,-4.8311,-4.8376,-4.8435,-4.8461,0,0,-4.7877,-4.7862,-4.7927,-4.7876,-4.8001,-4.7932,-4.8067,-4.8103,-4.8099,-4.8181,-4.8186,-4.8288,-4.8315,-4.8379,-4.8609,-4.863,0,0,0,-4.7971,-4.8017,-4.8048,-4.8098,-4.813,-4.816,-4.8176,-4.819,-4.8259,-4.8144,-4.833,-4.8346,-4.8383,-4.8411,-4.8429,-4.846,-4.8235,-4.8234,-4.8234,-4.8164,-4.8156,-4.8263,-4.8266,-4.8314,-4.8331,-4.837,-4.8391,-4.8367,-4.8412,-4.8434,-4.8575,-4.8608,-4.8622,-4.8654,-4.8467,-4.8468,-4.8468,-4.8468,-4.8352,-4.8415,-4.8385,-4.8476,-4.8467,-4.8543,-4.8565,-4.8546,-4.8615,-4.8557,-4.8589,-4.8523,-4.8645,-4.8673,-4.8473,-4.8472,-4.8472,-4.8471,-4.8471,-4.8475,-4.8504,-4.8522,-4.8594,-4.8651,-4.8651,-4.8721,-4.871,-4.87,-4.8732,-4.8755,-4.8754,-4.8749,-4.8745,-4.8745,-4.8746,-4.8746,-4.8747,-4.8747,-4.8595,-4.8613,-4.8673,-4.8718,-4.875,-4.879,-4.8811,-4.8841,-4.8872,-4.8858,-4.8858,-4.8829,-4.866,-4.8616,-4.8754,-4.8753,-4.8752,-4.8751,-4.8751,-4.8783,-4.874,-4.8832,-4.8864,-4.8917,-4.8975,-4.8962,-4.9026,-4.905,-4.9084,-4.905,-4.8927,-4.891,-4.8896,-4.8859,-4.9053,-4.9052,-4.9053,-4.9053,-4.8885,-4.8877,-4.897,-4.9022,-4.9072,-4.9071,-4.9176,-4.9195,-4.9207,-4.9221,-4.9192,-4.9144,-4.913,-4.9121,-4.9102,-4.9068,-4.931,-4.931,-4.931,-4.9,-4.8997,-4.9087,-4.91,-4.9142,-4.9178,-4.9277,-4.9337,-4.9342,-4.932,-4.9232,-4.9221,-4.9143,-4.9118,-4.909,-4.9061,-4.8997,0,0]},{"header":{"parameterUnit":"m.s-1","parameterCategory":1,"la1":30.2992,"la2":30.254,"lo1":-89.0895,"lo2":-89.0443,"dy":0.0025,"dx":0.0025,"nx":19,"ny":19,"refTime":"2026-04-01T21:00:00:Z","depth":0,"parameterNumber":3,"parameterNumberName":"V-component_of_WINDS"},"data":[0,0,0,3.6831,3.6833,3.693,3.6931,3.7049,3.705,0,0,0,0,0,0,0,0,0,0,0,3.68,3.68,3.6831,3.6834,3.693,3.6931,3.7049,3.705,0,0,0,0,0,0,0,0,0,0,0,3.6799,3.68,3.6801,3.6834,3.693,3.6931,3.7048,3.6977,0,0,0,0,0,0,0,0,0,0,3.6884,3.6852,3.68,3.6801,3.6835,3.693,3.6931,3.6974,3.6982,3.7003,0,3.7021,0,3.7038,3.7057,3.7058,0,0,0,3.6836,3.6845,3.6874,3.6801,3.6835,3.693,3.6887,3.6978,3.6987,3.7013,3.7023,3.7027,3.7039,3.7058,3.7059,3.7178,3.7178,0,0,3.683,3.6815,3.6868,3.688,3.6865,3.6884,3.689,3.6984,3.6993,3.7023,3.703,3.7041,3.7059,3.706,3.7177,3.7178,0,0,0,3.6814,3.6811,3.6838,3.6875,3.6893,3.6887,3.6894,3.6989,3.6999,3.7032,3.7043,3.706,3.7061,3.7177,3.7178,3.7188,0,0,0,3.681,3.6801,3.6836,3.6827,3.6891,3.6942,3.6897,3.6992,3.7004,3.7042,3.706,3.7062,3.7176,3.7177,3.7186,3.7195,0,0,0,3.6794,3.68,3.6813,3.6826,3.6868,3.6941,3.6957,3.6995,3.701,3.7058,3.7062,3.7176,3.7177,3.7185,3.7193,3.7224,0,0,0,3.6772,3.6818,3.6813,3.6868,3.6867,3.6947,3.6956,3.7016,3.7058,3.706,3.7176,3.7178,3.7185,3.7192,3.7222,3.7247,3.7256,0,0,3.6821,3.6823,3.6857,3.6855,3.6933,3.6933,3.7012,3.7064,3.7081,3.7144,3.7148,3.7187,3.7193,3.7223,3.731,3.7317,0,0,0,3.6867,3.6892,3.6916,3.6956,3.6998,3.7036,3.7078,3.7097,3.7153,3.7111,3.7206,3.721,3.7229,3.7241,3.7247,3.7265,3.7183,3.7182,3.7182,3.6913,3.6936,3.6995,3.703,3.7069,3.7114,3.7148,3.7182,3.719,3.7213,3.7232,3.7282,3.7297,3.7301,3.732,3.7247,3.7247,3.7247,3.7247,3.6988,3.7027,3.7042,3.7104,3.7128,3.718,3.7226,3.7231,3.7283,3.7269,3.7286,3.7269,3.7308,3.7326,3.7248,3.7248,3.7247,3.7247,3.7247,3.7022,3.7045,3.707,3.7134,3.718,3.7214,3.7265,3.7284,3.7302,3.7319,3.7343,3.7343,3.7346,3.7329,3.7329,3.7329,3.733,3.733,3.733,3.7047,3.7075,3.7117,3.7168,3.7199,3.7241,3.7289,3.7319,3.7358,3.7368,3.7368,3.7376,3.7308,3.7291,3.7333,3.7332,3.7332,3.7331,3.7331,3.7116,3.7105,3.7168,3.7199,3.7263,3.731,3.7334,3.7396,3.7423,3.7448,3.7454,3.74,3.7402,3.7398,3.7384,3.7447,3.7447,3.7447,3.7447,3.7145,3.7149,3.7221,3.727,3.732,3.735,3.7423,3.7461,3.7499,3.7518,3.7511,3.7495,3.7489,3.7495,3.7489,3.7476,3.7562,3.7562,3.7562,3.719,3.7201,3.7259,3.7297,3.735,3.7395,3.7465,3.752,3.756,3.7567,3.7534,3.7529,3.7502,3.7492,3.7497,3.7486,3.7464,0,0]}]]